Time,TemperatureF,DewpointF,PressureIn,WindDirection,WindDirectionDegrees,WindSpeedMPH,WindSpeedGustMPH,Humidity,HourlyPrecipIn,Conditions,Clouds,dailyrainin,SoftwareType,DateUTC
2014-08-30 00:06:00,63.5,55.0,29.88,NNE,15,0.0,-999.0,73,-99.99,,,0.00,weatherlink.com 1.10,2014-08-30 07:06:00,
2014-08-30 00:21:00,63.5,54.0,29.88,NNE,15,0.0,-999.0,72,-99.99,,,0.00,weatherlink.com 1.10,2014-08-30 07:21:00,
2014-08-30 00:36:00,63.5,54.0,29.88,NNE,15,0.0,-999.0,72,-99.99,,,0.00,weatherlink.com 1.10,2014-08-30 07:36:00,
2014-08-30 00:51:00,63.6,54.0,29.87,NNE,15,0.0,-999.0,72,-99.99,,,0.00,weatherlink.com 1.10,2014-08-30 07:51:00,
2014-08-30 01:06:00,63.9,54.0,29.88,NNE,15,0.0,-999.0,70,-99.99,,,0.00,weatherlink.com 1.10,2014-08-30 08:06:00,
2014-08-30 01:21:00,64.0,54.0,29.88,NNE,15,0.0,-999.0,69,-99.99,,,0.00,weatherlink.com 1.10,2014-08-30 08:21:00,
2014-08-30 01:36:00,63.5,54.0,29.87,NNE,15,0.0,-999.0,70,-99.99,,,0.00,weatherlink.com 1.10,2014-08-30 08:36:00,
2014-08-30 01:51:00,63.4,53.0,29.87,NNE,15,0.0,-999.0,70,-99.99,,,0.00,weatherlink.com 1.10,2014-08-30 08:51:00,
2014-08-30 02:06:00,63.6,54.0,29.87,NNE,15,0.0,-999.0,70,-99.99,,,0.00,weatherlink.com 1.10,2014-08-30 09:06:00,
2014-08-30 02:21:00,63.4,53.0,29.87,NNE,15,0.0,-999.0,70,-99.99,,,0.00,weatherlink.com 1.10,2014-08-30 09:21:00,
2014-08-30 02:36:00,62.9,54.0,29.87,NNE,15,0.0,-999.0,72,-99.99,,,0.00,weatherlink.com 1.10,2014-08-30 09:36:00,
2014-08-30 02:51:00,62.1,54.0,29.87,NNE,15,0.0,-999.0,75,-99.99,,,0.00,weatherlink.com 1.10,2014-08-30 09:51:00,
2014-08-30 03:06:00,61.5,54.0,29.87,NNE,15,0.0,-999.0,75,-99.99,,,0.00,weatherlink.com 1.10,2014-08-30 10:06:00,
2014-08-30 03:21:00,61.7,54.0,29.87,NNE,15,0.0,-999.0,75,-99.99,,,0.00,weatherlink.com 1.10,2014-08-30 10:21:00,
2014-08-30 03:36:00,62.7,54.0,29.87,NNE,15,0.0,-999.0,73,-99.99,,,0.00,weatherlink.com 1.10,2014-08-30 10:36:00,
2014-08-30 03:51:00,61.9,54.0,29.86,NNE,15,0.0,-999.0,75,-99.99,,,0.00,weatherlink.com 1.10,2014-08-30 10:51:00,
2014-08-30 04:06:00,61.9,54.0,29.86,NNE,15,0.0,-999.0,74,-99.99,,,0.00,weatherlink.com 1.10,2014-08-30 11:06:00,
2014-08-30 04:21:00,62.0,54.0,29.86,NNE,15,0.0,-999.0,74,-99.99,,,0.00,weatherlink.com 1.10,2014-08-30 11:21:00,
2014-08-30 04:36:00,62.6,53.0,29.86,NNE,15,0.0,-999.0,72,-99.99,,,0.00,weatherlink.com 1.10,2014-08-30 11:36:00,
2014-08-30 04:51:00,61.2,54.0,29.86,NNE,15,0.0,-999.0,76,-99.99,,,0.00,weatherlink.com 1.10,2014-08-30 11:51:00,
2014-08-30 05:06:00,61.0,53.0,29.86,NNE,15,0.0,-999.0,76,-99.99,,,0.00,weatherlink.com 1.10,2014-08-30 12:06:00,
2014-08-30 05:21:00,61.1,53.0,29.87,NNE,15,0.0,-999.0,75,-99.99,,,0.00,weatherlink.com 1.10,2014-08-30 12:21:00,
2014-08-30 05:36:00,60.8,53.0,29.87,NNE,15,0.0,-999.0,75,-99.99,,,0.00,weatherlink.com 1.10,2014-08-30 12:36:00,
2014-08-30 05:51:00,60.8,53.0,29.87,NNE,15,0.0,-999.0,75,-99.99,,,0.00,weatherlink.com 1.10,2014-08-30 12:51:00,
2014-08-30 06:06:00,60.9,53.0,29.87,NNE,15,0.0,-999.0,75,-99.99,,,0.00,weatherlink.com 1.10,2014-08-30 13:06:00,
2014-08-30 06:21:00,61.0,53.0,29.87,NNE,15,0.0,-999.0,76,-99.99,,,0.00,weatherlink.com 1.10,2014-08-30 13:21:00,
2014-08-30 06:36:00,60.8,53.0,29.87,NNE,15,0.0,-999.0,76,-99.99,,,0.00,weatherlink.com 1.10,2014-08-30 13:36:00,
2014-08-30 06:51:00,61.1,54.0,29.88,NNE,15,0.0,-999.0,77,-99.99,,,0.00,weatherlink.com 1.10,2014-08-30 13:51:00,
2014-08-30 07:06:00,62.0,54.0,29.88,NNE,15,0.0,-999.0,75,-99.99,,,0.00,weatherlink.com 1.10,2014-08-30 14:06:00,
2014-08-30 07:21:00,63.6,54.0,29.88,NNE,15,0.0,-999.0,72,-99.99,,,0.00,weatherlink.com 1.10,2014-08-30 14:21:00,
2014-08-30 07:36:00,64.4,55.0,29.89,NNE,15,0.0,-999.0,71,-99.99,,,0.00,weatherlink.com 1.10,2014-08-30 14:36:00,
2014-08-30 07:51:00,64.9,55.0,29.89,NNE,15,0.0,-999.0,71,-99.99,,,0.00,weatherlink.com 1.10,2014-08-30 14:51:00,
2014-08-30 08:06:00,65.3,56.0,29.89,NNE,15,0.0,-999.0,71,-99.99,,,0.00,weatherlink.com 1.10,2014-08-30 15:06:00,
2014-08-30 08:21:00,66.3,56.0,29.89,NNE,15,0.0,-999.0,69,-99.99,,,0.00,weatherlink.com 1.10,2014-08-30 15:21:00,
2014-08-30 08:36:00,67.0,56.0,29.89,NNE,16,0.0,-999.0,69,-99.99,,,0.00,weatherlink.com 1.10,2014-08-30 15:36:00,
2014-08-30 08:51:00,68.0,57.0,29.89,NE,46,0.0,-999.0,67,-99.99,,,0.00,weatherlink.com 1.10,2014-08-30 15:51:00,
2014-08-30 09:06:00,69.0,56.0,29.89,NE,46,0.0,-999.0,64,-99.99,,,0.00,weatherlink.com 1.10,2014-08-30 16:06:00,
2014-08-30 09:21:00,69.8,57.0,29.89,NE,48,0.0,-999.0,64,-99.99,,,0.00,weatherlink.com 1.10,2014-08-30 16:21:00,
2014-08-30 09:36:00,71.0,58.0,29.90,NE,48,0.0,-999.0,64,-99.99,,,0.00,weatherlink.com 1.10,2014-08-30 16:36:00,
2014-08-30 09:51:00,71.2,58.0,29.90,ENE,65,0.0,-999.0,64,-99.99,,,0.00,weatherlink.com 1.10,2014-08-30 16:51:00,
2014-08-30 10:06:00,72.2,60.0,29.90,ESE,117,0.0,-999.0,65,-99.99,,,0.00,weatherlink.com 1.10,2014-08-30 17:06:00,
2014-08-30 10:21:00,72.8,60.0,29.90,ESE,121,0.0,-999.0,64,-99.99,,,0.00,weatherlink.com 1.10,2014-08-30 17:21:00,
2014-08-30 10:36:00,72.6,60.0,29.90,ESE,111,0.0,-999.0,65,-99.99,,,0.00,weatherlink.com 1.10,2014-08-30 17:36:00,
2014-08-30 10:51:00,73.4,60.0,29.89,ESE,107,1.0,-999.0,64,-99.99,,,0.00,weatherlink.com 1.10,2014-08-30 17:51:00,
2014-08-30 11:06:00,75.5,61.0,29.90,ESE,111,3.0,-999.0,62,-99.99,,,0.00,weatherlink.com 1.10,2014-08-30 18:06:00,
2014-08-30 11:21:00,75.9,61.0,29.90,ESE,114,2.0,-999.0,61,-99.99,,,0.00,weatherlink.com 1.10,2014-08-30 18:21:00,
2014-08-30 11:36:00,76.8,62.0,29.90,ESE,115,0.0,-999.0,61,-99.99,,,0.00,weatherlink.com 1.10,2014-08-30 18:36:00,
2014-08-30 11:51:00,78.2,61.0,29.89,ESE,110,3.0,-999.0,55,-99.99,,,0.00,weatherlink.com 1.10,2014-08-30 18:51:00,
2014-08-30 12:06:00,79.0,61.0,29.89,ESE,111,2.0,-999.0,54,-99.99,,,0.00,weatherlink.com 1.10,2014-08-30 19:06:00,
2014-08-30 12:21:00,80.2,61.0,29.89,ESE,116,12.0,-999.0,53,-99.99,,,0.00,weatherlink.com 1.10,2014-08-30 19:21:00,